ATLAS CENTAUR 2 R/B 1 00694U 63047A 12037.52644986 .00000893 00000-0 11140-3 0 8186 2 00694 030.3592 094.6928 0610681 031.5336 332.0407 13.96454933408248 THOR AGENA D R/B 1 00733U 64002A 12037.23160463 .00000087 00000-0 50278-4 0 5721 2 00733 099.0054 115.5463 0034793 113.7107 246.7727 14.31457420502118 SL-3 R/B 1 00877U 64053B 12037.10231236 .00000033 00000-0 32247-4 0 9102 2 00877 065.0753 249.7755 0064799 173.6283 186.5655 14.58326691515882 SL-8 R/B 1 02802U 67045B 12036.94209913 .00000225 00000-0 74049-4 0 8089 2 02802 074.0091 209.5453 0066853 014.1079 346.1925 14.42700340346483 SL-8 R/B 1 03230U 68040B 12036.84084508 .00000808 00000-0 97608-4 0 5171 2 03230 074.0327 189.2406 0033867 300.3224 059.4604 14.85271139344240 OAO 2 1 03597U 68110A 12036.66141714 .00000141 00000-0 45192-4 0 8262 2 03597 034.9939 131.3959 0005681 053.4965 306.6248 14.45049895274388 ISIS 1 1 03669U 69009A 12035.98457599 +.00000198 +00000-0 +13212-3 0 03999 2 03669 088.4304 004.7893 1714826 023.8505 343.3221 11.28973442767847 METEOR 1-1 1 03835U 69029A 12037.19371964 .00153751 72475-5 56755-3 0 9913 2 03835 081.1478 296.1507 0007985 063.6118 296.5920 15.88037262347227 SERT 2 1 04327U 70009A 12037.09927698 .00000032 00000-0 10000-3 0 4371 2 04327 099.1287 220.4032 0005222 013.3179 346.8098 13.58275274 81654 SL-3 R/B 1 04814U 70113B 12037.20844975 .00003697 00000-0 18663-3 0 8048 2 04814 081.1506 182.9674 0037526 231.0405 128.7502 15.16240762236139 SL-3 R/B 1 05118U 71028B 12037.12902388 .00001452 00000-0 10099-3 0 9263 2 05118 081.2350 227.0388 0045894 290.4597 069.1724 15.04045357208892 ASTEX 1 1 05560U 71089A 12037.21992363 .00000242 00000-0 67431-4 0 6214 2 05560 092.7249 293.4445 0018099 112.1813 248.1311 14.46533373117947 SL-8 R/B 1 05730U 71119B 12037.04905466 .00003054 00000-0 22362-3 0 341 2 05730 073.9062 310.2919 0783798 212.3682 142.6984 13.81638521933103 COSMOS 482 DESCENT CRAFT 1 06073U 72023E 12037.50818884 .00020222 43985-5 13329-3 0 7132 2 06073 052.0763 076.9221 2054078 112.4154 021.3948 11.51087828124467 OAO 3 (COPERNICUS) 1 06153U 72065A 12036.90358048 .00000203 00000-0 49264-4 0 9774 2 06153 035.0087 001.3499 0007690 313.5439 046.4620 14.56820948 95043 ATLAS CENTAUR R/B 1 06155U 72065B 12037.12998906 .00000526 00000-0 91934-4 0 6680 2 06155 035.0073 301.6503 0041159 304.3307 055.3500 14.68589952103655 OPS 8180 (RADCAT) 1 06212U 72076A 12035.73037898 +.00047198 +00000-0 +71604-3 0 05412 2 06212 098.5734 212.7688 0002139 259.3236 100.7766 15.54476228270479 SL-8 R/B 1 07004U 73107B 12036.88916117 .00017661 00000-0 63581-3 0 8785 2 07004 073.9566 162.2882 0389010 156.8988 205.0227 14.78868930942045 SL-8 R/B 1 07338U 74044B 12035.95122171 +.00069328 +00000-0 +53681-3 0 07687 2 07338 082.8672 228.6171 0101852 202.8240 156.8485 15.64820386947367 DELTA 1 R/B 1 08063U 75072B 12037.05838547 .00026673 -63878-6 65225-3 0 1506 2 08063 089.1216 248.5747 0834117 174.3118 186.8368 13.95531079601428 SL-8 R/B 1 08459U 75112B 12037.54746487 .00000096 00000-0 41925-4 0 4478 2 08459 074.0607 102.7106 0015596 041.5755 318.6581 14.36052414893116 SL-3 R/B 1 10114U 77057B 12036.68821237 .00001375 00000-0 87839-4 0 6095 2 10114 097.3915 281.0675 0015339 286.3237 073.6374 15.10172229887287 SL-3 R/B 1 10861U 78045B 12037.24420255 .00012213 00000-0 22801-3 0 8733 2 10861 081.1995 358.8898 0013770 221.1631 138.8558 15.48525517853809 SEASAT 1 1 10967U 78064A 12037.42936738 .00000126 00000-0 79204-4 0 6298 2 10967 108.0042 174.2786 0001882 236.7019 123.3944 14.42442643764199 SL-14 R/B 1 11267U 79011B 12035.75562539 +.00000260 +00000-0 +26065-4 0 06840 2 11267 082.5259 277.4113 0015555 260.6680 099.2777 14.87356084784055 SL-3 R/B (Decayed 2009-05-09) 1 11332U 79032B 09128.99194196 .28742236 -98106-6 11963-3 0 3452 2 11332 081.2079 330.3676 0011717 252.5071 107.8361 16.57177424659095 SL-8 R/B 1 11574U 79089B 12035.95870146 +.00000041 +00000-0 +21400-4 0 00865 2 11574 074.0659 233.2581 0016613 275.0505 084.8749 14.39812476695090 SL-14 R/B 1 11672U 80005B 12036.78835626 .00000284 00000-0 29366-4 0 2792 2 11672 082.5179 125.8911 0017108 338.9219 021.1290 14.86407450732321 SL-3 R/B 1 11849U 80051B 12037.23267878 .00004804 00000-0 16511-3 0 6814 2 11849 097.8012 221.9534 0011028 112.3397 247.9004 15.30573113734780 SL-3 R/B 1 11933U 80069B 12037.24857192 .00009106 00000-0 21139-3 0 5419 2 11933 081.2190 324.8854 0021213 113.0656 247.2829 15.41973639729173 COSMOS 1220 1 12054U 80089A 12035.50601052 +.00013668 +00000-0 +38584-3 0 08092 2 12054 064.9722 046.1380 0026179 138.5871 221.7261 15.36294350615117 SL-8 R/B 1 12139U 81003B 12037.11380245 .00002722 00000-0 15876-3 0 5725 2 12139 082.9568 000.4921 0570987 168.5514 192.9319 14.29897481564572 SL-8 R/B 1 12389U 81033B 12037.20765009 .00018084 00000-0 51406-3 0 2353 2 12389 082.9114 186.3304 0352807 220.6358 136.8060 14.91762319579802 SL-3 R/B 1 12465U 81046B 12037.47155051 .00001759 00000-0 11753-3 0 6155 2 12465 081.2299 102.8651 0035961 359.3004 000.8127 15.05976415671973 METEOR PRIRODA 1 12585U 81065A 12036.78210336 .00001894 00000-0 12282-3 0 1423 2 12585 097.3072 055.9044 0019669 011.5504 348.6168 15.09083173665757 SL-3 R/B 1 12904U 81103B 12037.20928238 .00001450 00000-0 11459-3 0 7986 2 12904 081.1789 342.9550 0032166 007.2671 352.9007 14.99688465198768 SL-3 R/B 1 13068U 82013B 12037.52757869 .00001281 00000-0 97037-4 0 7769 2 13068 081.2075 288.7357 0022896 278.0463 081.8160 15.01461725629159 SL-3 R/B 1 13154U 82039B 12037.16593180 .00000794 00000-0 71588-4 0 5362 2 13154 081.1842 273.9397 0043744 163.9965 196.2627 14.93748541610940 COSMOS 1400 1 13402U 82079A 12037.53876694 .00006934 00000-0 19679-3 0 5686 2 13402 081.1271 053.1963 0008546 078.8117 281.4071 15.36011448616777 SL-3 R/B 1 13403U 82079B 12037.11326206 .00000904 00000-0 69107-4 0 9115 2 13403 081.1751 342.3664 0037447 222.1468 137.6865 15.00444984602445 SL-3 R/B 1 13819U 83010B 12037.15960935 .00000906 00000-0 58722-4 0 2137 2 13819 081.1092 272.8825 0035766 329.5580 030.3569 15.06654368578019 COSMOS 1484 1 14207U 83075A 12035.74728511 +.00021710 +00000-0 +23879-3 0 01213 2 14207 097.6324 220.3547 0009990 314.2578 045.7861 15.63130986010494 SL-3 R/B 1 14208U 83075B 12036.65306418 .00000706 00000-0 55028-4 0 3927 2 14208 097.5441 088.8900 0046243 006.3318 353.8468 15.03587064552480 COSMOS 1500 1 14372U 83099A 12036.81866388 .00001162 00000-0 77264-4 0 8984 2 14372 082.5361 101.7387 0012349 344.4811 015.6034 15.06197415541845 SL-8 R/B 1 14484U 83111B 12036.84891838 .00018436 00000-0 51198-3 0 7757 2 14484 082.8368 052.4390 0371476 010.5284 350.3443 14.88766962442738 COSMOS 1536 1 14699U 84013A 12037.50534323 .00000693 00000-0 54554-4 0 3688 2 14699 082.5243 057.1286 0012594 220.1684 139.8619 14.99269347519149 COSMOS 1544 1 14819U 84027A 12036.84900113 .00003371 00000-0 20336-3 0 2840 2 14819 082.4904 172.6380 0021086 019.8029 340.4014 15.10243440518650 SL-14 R/B 1 14820U 84027B 12037.00800759 .00000291 00000-0 33290-4 0 9441 2 14820 082.5400 012.9519 0021047 039.5379 320.7364 14.82374708505743 ERBS 1 15354U 84108B 12037.51748592 .00003608 00000-0 18421-3 0 8651 2 15354 056.9835 128.5862 0019509 054.9786 305.3086 15.19020719498361 SL-8 R/B 1 15483U 85006B 12036.86922049 .00000189 00000-0 74604-4 0 5676 2 15483 074.0451 347.3705 0018135 092.3782 267.9450 14.35438224415483 SL-12 R/B(2) 1 15772U 85042D 12035.80708749 +.00000145 +00000-0 +88330-4 0 07573 2 15772 071.1027 148.7862 0037014 210.8516 149.0433 14.20817122383103 SL-14 R/B 1 15945U 85069B 12036.96352078 .00000315 00000-0 36103-4 0 9305 2 15945 082.5284 165.3879 0018302 260.8396 099.0747 14.82714742430735 SL-3 R/B 1 16111U 85090B 12036.58378627 .00003654 00000-0 15596-3 0 7850 2 16111 097.4729 110.6631 0031864 197.9948 162.0179 15.23091506443501 SL-16 R/B 1 16182U 85097B 12035.87209247 +.00000061 +00000-0 +54971-4 0 06575 2 16182 070.9990 169.6968 0008290 192.4565 167.6350 14.16018427358840 SL-14 R/B 1 16496U 86006B 12037.54294855 .00000271 00000-0 30409-4 0 8428 2 16496 082.5211 042.1075 0021512 048.3892 311.9159 14.82816317407114 SL-14 R/B 1 16792U 86046B 12037.23481676 .00000227 00000-0 25609-4 0 7387 2 16792 082.4790 243.1795 0022965 254.4732 105.3945 14.81938298384778 SL-14 R/B 1 16882U 86055B 12037.17907353 .00000193 00000-0 21365-4 0 7270 2 16882 082.5204 264.9128 0021540 018.3736 341.8251 14.81895408377773 COSMOS 1812 1 17295U 87003A 12037.56646001 .00001970 00000-0 13895-3 0 6851 2 17295 082.5205 256.1569 0013287 004.1003 356.0315 15.04394837363583 SL-14 R/B 1 17567U 87024B 12037.52436813 .00000249 00000-0 27998-4 0 6342 2 17567 082.5249 229.7184 0018952 324.4661 035.5290 14.82454135346309 COSMOS 1833 1 17589U 87027A 12035.93901956 +.00000088 +00000-0 +72954-4 0 01031 2 17589 070.9179 341.9249 0008265 172.5950 187.5292 14.12809214283589 SL-16 R/B 1 17590U 87027B 12036.82963333 -.00000194 00000-0 -73536-4 0 394 2 17590 071.0053 313.1767 0003307 031.7921 328.3383 14.16534143286787 SL-14 R/B 1 17912U 87038B 12035.61577685 +.00000240 +00000-0 +27439-4 0 06286 2 17912 082.5020 087.3972 0019480 194.0417 166.0254 14.81754940337429 COSMOS 1844 1 17973U 87041A 12037.18675252 -.00000101 00000-0 -27879-4 0 1135 2 17973 070.8989 079.3946 0031615 187.1555 172.9119 14.13802536276385 SL-14 R/B 1 18153U 87055B 12037.33268469 .00000261 00000-0 29812-4 0 6180 2 18153 082.5017 141.0497 0023889 050.1982 310.1314 14.81995539328262 COSMOS 1867 1 18187U 87060A 12035.92957160 -.00000131 +00000-0 -11871-4 0 03887 2 18187 065.0074 311.3736 0013468 263.0874 096.8678 14.30913527283658 SL-14 R/B 1 18749U 88001B 12036.87432043 .00000316 00000-0 36854-4 0 6301 2 18749 082.5130 338.4031 0017577 281.5180 078.4048 14.81935641300314 COSMOS 1933 1 18958U 88020A 12037.12366866 .00001089 00000-0 90104-4 0 5587 2 18958 082.5297 186.0397 0014516 081.6264 278.6603 14.97872098297841 SL-3 R/B 1 19046U 88032B 12037.22006947 .00000764 00000-0 70750-4 0 1019 2 19046 097.7732 090.9865 0037912 109.1765 251.3565 14.96967663279164 SL-16 R/B 1 19120U 88039B 12037.42253391 .00000025 00000-0 35214-4 0 4174 2 19120 071.0157 140.6925 0023122 305.9111 053.9817 14.18916180228669 COSMOS 1953 1 19210U 88050A 12037.32969515 .00001726 00000-0 14322-3 0 6681 2 19210 082.5208 122.0554 0017780 070.1749 290.1386 14.98095805283933 SL-8 R/B 1 19257U 88053B 12036.97720429 .00000254 00000-0 94970-4 0 3820 2 19257 074.0454 214.4283 0021364 230.8854 129.0400 14.36603869237486 COSMOS 1975 1 19573U 88093A 12035.62391734 +.00000750 +00000-0 +63065-4 0 04406 2 19573 082.5214 071.1330 0019431 096.1207 264.2230 14.96709063265903 SL-14 R/B 1 19574U 88093B 12035.88383771 +.00000319 +00000-0 +36952-4 0 06179 2 19574 082.5320 175.3698 0024019 089.7676 270.6289 14.82035373259125 SL-16 R/B 1 19650U 88102B 12035.85325855 -.00000106 +00000-0 -29558-4 0 06632 2 19650 070.9930 174.4124 0015796 279.9765 079.9582 14.15566001198701 INTERCOSMOS 24 1 20261U 89080A 12037.01493446 .00000265 00000-0 80176-4 0 6772 2 20261 082.5923 196.9557 1212160 286.0348 061.0773 12.53843242 20345 SL-14 R/B 1 20262U 89080C 12037.09669997 .00000136 00000-0 33734-4 0 1766 2 20262 082.5874 229.3536 1241733 037.9029 330.3204 12.47964087 17381 DELTA 1 R/B 1 20323U 89089B 12037.24985001 .00000163 00000-0 52426-4 0 2756 2 20323 097.0959 271.1399 0074412 115.7493 245.1425 14.47040585171450 DELTA 2 R/B(1) 1 20453U 90008B 12037.16291175 .00005788 00000-0 41401-3 0 2945 2 20453 035.6336 061.6230 0361859 299.2500 057.2500 14.63669239159057 COSMOS 2058 1 20465U 90010A 12037.19084071 .00001016 00000-0 97247-4 0 3625 2 20465 082.4943 323.0060 0018961 029.5570 330.6719 14.92092625192782 SL-14 R/B 1 20466U 90010B 12037.12565934 .00000252 00000-0 30148-4 0 2257 2 20466 082.4995 043.2907 0019506 288.8892 071.0206 14.80167778187739 SL-14 R/B 1 20511U 90018B 12035.91405774 +.00000291 +00000-0 +36231-4 0 02405 2 20511 082.5238 337.3301 0019686 055.2118 305.0943 14.78875426182378 HST 1 20580U 90037B 12036.06260360 .00001506 00000-0 99186-4 0 9381 2 20580 028.4708 294.4865 0003299 082.7422 277.3608 15.02161937994697 SL-16 R/B 1 20625U 90046B 12037.51453533 -.00000011 00000-0 18868-4 0 805 2 20625 070.9972 297.3749 0015676 207.5087 152.5207 14.14435434121005 COSMOS 2084 1 20663U 90055A 12037.12033356 .00000649 00000-0 80892-4 0 3873 2 20663 062.7936 259.4752 0136937 119.3442 242.1408 14.86623309168175 SL-6 R/B(2) 1 20666U 90055D 12036.83873274 .00001173 00000-0 13291-3 0 4562 2 20666 062.7847 186.7304 0116130 136.9680 224.0571 14.87581207169392 SL-8 R/B 1 20775U 90078B 12036.74539424 .00012174 00000-0 68006-3 0 7676 2 20775 082.9324 184.2994 0700533 150.7275 213.5110 14.05119794 71016 SL-14 R/B (Decayed 2007-01-08) 1 20967U 90104B 07008.18498612 .13537369 -13386-5 56173-4 0 5448 2 20967 082.4240 094.1023 0009798 286.5108 140.5507 16.57327006903997 SL-8 R/B 1 21088U 91006B 12035.55521597 +.00000151 +00000-0 +13782-3 0 02359 2 21088 082.9382 036.7288 0024077 047.3542 312.9647 13.76813706055927 OKEAN 3 1 21397U 91039A 12036.98472315 .00000962 00000-0 10239-3 0 5402 2 21397 082.5220 192.3638 0018226 288.4624 071.4612 14.87824613118115 COSMOS 2151 1 21422U 91042A 12037.22735171 .00000661 00000-0 68672-4 0 1660 2 21422 082.5037 305.0266 0015166 344.2720 015.8024 14.88349903116895 SL-14 R/B 1 21423U 91042B 12036.84936741 .00000219 00000-0 26668-4 0 09 2 21423 082.4935 350.1499 0017932 174.9913 185.1498 14.78652083113085 ERS 1 1 21574U 91050A 12036.87782153 .00000323 00000-0 12436-3 0 2571 2 21574 098.1983 019.3745 0034821 058.3286 302.1291 14.36021013 76370 ARIANE 40 R/B 1 21610U 91050F 12036.87778226 .00000331 00000-0 12091-3 0 8356 2 21610 098.7490 031.3237 0003658 023.9656 336.1700 14.39536454 78224 UARS (Decayed 2011-09-24) 1 21701U 91063B 11267.10904230 .15227068 11945-4 11522-3 0 6442 2 21701 056.9313 262.1789 0003645 318.1436 041.9334 16.52554649109189 INTERCOSMOS 25 1 21819U 91086A 12037.39397611 .00001237 00000-0 25021-3 0 6451 2 21819 082.5650 156.3382 1543281 279.3873 063.6568 11.99962178876952 SL-14 R/B 1 21820U 91086B 12037.48468731 .00000372 00000-0 68601-4 0 5017 2 21820 082.5555 191.6178 1587107 038.7014 331.7637 11.91329671873468 SL-8 R/B 1 21876U 92008B 12037.35794170 .00000031 00000-0 15594-4 0 9893 2 21876 082.9278 132.0943 0036366 098.0068 262.5217 13.75424387 2235 SL-8 R/B 1 21938U 92020B 12036.88995263 .00000003 00000-0 -12765-4 0 213 2 21938 082.9280 014.1323 0027576 255.7069 104.1023 13.75084610994142 SL-16 R/B 1 22220U 92076B 12036.98501586 -.00000265 00000-0 -10962-3 0 6797 2 22220 070.9960 220.4854 0011837 008.6554 351.4774 14.16206751993515 SL-16 R/B 1 22285U 92093B 12036.87158080 -.00000189 00000-0 -73523-4 0 6790 2 22285 071.0155 359.7863 0006302 236.3559 123.6976 14.14790454985549 COSMOS 2228 1 22286U 92094A 12037.53856654 .00000695 00000-0 80499-4 0 6079 2 22286 082.5183 054.9918 0023859 119.5144 240.8453 14.83868350 31777 SL-16 R/B 1 22566U 93016B 12036.60785594 .00000589 00000-0 33042-3 0 4189 2 22566 071.0035 217.3989 0011877 234.6326 125.3749 14.14725970974256 COSMOS 2242 1 22626U 93024A 12035.67786015 +.00000675 +00000-0 +77883-4 0 03727 2 22626 082.5210 084.3490 0021769 124.1491 236.1793 14.84000769015144 SL-16 R/B 1 22803U 93059B 12037.24498287 -.00000294 00000-0 -12329-3 0 6431 2 22803 070.9903 054.6461 0016056 132.7877 227.4608 14.16576851950999 ARIANE 40 R/B 1 22830U 93061H 12035.92867381 +.00000163 +00000-0 +79346-4 0 05381 2 22830 098.7038 354.0661 0010214 257.4572 102.5467 14.30691962958016 COSMOS 2278 1 23087U 94023A 12036.78452844 .00000313 00000-0 19165-3 0 6799 2 23087 071.0495 131.0769 0009730 316.0716 043.9632 14.13444072917743 SL-16 R/B 1 23088U 94023B 12036.72722704 -.00000346 00000-0 -15572-3 0 3028 2 23088 070.9972 072.0872 0004879 217.3073 142.7711 14.14494810918595 SL-16 R/B 1 23343U 94074B 12036.98288854 .00000370 00000-0 62275-4 0 3128 2 23343 098.1566 017.8507 0006463 213.7473 146.3368 14.75349444927943 SL-16 R/B 1 23405U 94077B 12035.97490227 -.00000048 +00000-0 +00000-0 0 05766 2 23405 070.9735 014.0853 0001737 005.9378 354.1759 14.14990498888353 ERS 2 1 23560U 95021A 12037.38810058 .00002616 00000-0 20325-3 0 2329 2 23560 098.5040 134.7050 0005539 046.1258 314.0413 15.02338486879574 ARIANE 40+ R/B 1 23561U 95021B 12037.44166989 .00000207 00000-0 85223-4 0 1124 2 23561 098.5629 351.0678 0006740 310.6644 049.3955 14.36677400880020 SL-16 R/B 1 23705U 95058B 12036.45054187 -.00000253 00000-0 -10618-3 0 6123 2 23705 071.0209 177.9548 0010873 037.3966 322.7909 14.14921983840110 SL-16 R/B 1 24298U 96051B 12037.03518590 -.00000184 00000-0 -73512-4 0 8244 2 24298 070.8695 226.8317 0018238 221.7936 138.1790 14.12414278795333 ORBVIEW 2 (SEASTAR) 1 24883U 97037A 12036.92420255 .00000184 00000-0 83662-4 0 6463 2 24883 098.3991 159.3969 0002842 132.9681 227.1749 14.32397923771464 SL-16 R/B 1 25400U 98043G 12037.49437876 .00000005 00000-0 19255-4 0 88 2 25400 098.2789 050.1789 0009136 285.2535 074.7642 14.25151871706216 SL-16 R/B 1 25407U 98045B 12036.90865448 -.00000080 00000-0 -16572-4 0 8253 2 25407 071.0051 196.0210 0008784 299.6781 060.3474 14.15558629699040 ISS (ZARYA) 1 25544U 98067A 12037.58861690 .00009544 00000-0 12695-3 0 9589 2 25544 051.6422 062.1565 0020255 013.6755 127.2191 15.58718309757490 SL-8 R/B 1 25723U 99022C 12035.91525114 +.00003286 +00000-0 +16533-3 0 00418 2 25723 048.4380 238.8669 0021754 194.6301 165.3993 15.19674948705476 CZ-4 R/B 1 25732U 99025C 12037.51266253 .00000057 00000-0 50027-4 0 8941 2 25732 098.7776 008.6323 0036827 276.5644 083.1338 14.17291664659295 OKEAN O 1 25860U 99039A 12037.51151939 .00000406 00000-0 69117-4 0 5396 2 25860 097.9173 002.9932 0000979 033.9606 326.1664 14.74076876675170 SL-16 R/B 1 25861U 99039B 12037.51787072 .00000270 00000-0 45429-4 0 9146 2 25861 097.8239 004.4153 0015158 283.5142 076.4378 14.76940875676650 SL-14 R/B 1 26874U 01032B 12036.58414345 .00004437 00000-0 11259-3 0 9886 2 26874 082.4793 156.0706 0019768 296.9443 062.9786 15.39173553588163 ENVISAT 1 27386U 02009A 12037.41633091 -.00000307 00000-0 -88094-4 0 9745 2 27386 098.4778 107.6816 0000953 092.3555 267.7739 14.37491213519760 IDEFIX/ARIANE 42P 1 27422U 02021B 12037.19628255 .00000093 00000-0 53589-4 0 8370 2 27422 098.4206 104.0223 0011574 268.5477 091.4374 14.28708387507049 AQUA 1 27424U 02022A 12036.70058374 .00000483 00000-0 11738-3 0 2059 2 27424 098.2210 339.0627 0001235 082.6691 277.4632 14.57090522519074 CZ-4B R/B 1 27432U 02024C 12036.84882799 .00000106 00000-0 77983-4 0 3688 2 27432 098.7029 003.4200 0050185 194.1312 165.8445 14.13706647502069 ADEOS 2 1 27597U 02056A 12037.55118166 .00000118 00000-0 66071-4 0 6484 2 27597 098.3437 078.8827 0001196 025.9632 334.1613 14.26377691476251 H-2A R/B 1 27601U 02056E 12037.25214970 .00000122 00000-0 61367-4 0 4337 2 27601 098.5314 126.5519 0072712 323.3415 036.2805 14.30944366477728 H-2A R/B 1 27700U 03009C 12036.56892644 .00060715 00000-0 55311-3 0 7450 2 27700 096.9960 039.0818 0020640 179.1256 181.0204 15.67452210496388 CZ-4 R/B 1 28059U 03049C 12037.05796989 .00000166 00000-0 52800-4 0 3891 2 28059 098.6525 195.2237 0051764 080.3308 280.3728 14.51674699439496 CZ-2C R/B 1 28222U 04012C 12037.09053632 .00001668 00000-0 13923-3 0 5284 2 28222 097.3528 046.8972 0053401 039.1050 321.4014 14.98741176426239 SL-16 R/B 1 28353U 04021B 12036.70619640 -.00000007 00000-0 21349-4 0 1312 2 28353 070.9957 225.0373 0006418 277.5722 082.4671 14.13972556395304 CZ-4B R/B 1 28471U 04044B 12035.96534156 +.00027462 +00000-0 +35350-3 0 02076 2 28471 096.9686 033.1624 0069773 079.7873 281.1268 15.56050543406282 CZ-2C R/B 1 28480U 04046B 12035.06436467 -.00000007 00000-0 13253-4 0 8291 2 28480 098.0748 249.3724 0142310 259.2581 099.2656 14.24976140375026 ARIANE 5 R/B 1 28499U 04049H 12037.14387916 .00000379 00000-0 56988-4 0 2689 2 28499 098.3053 057.8231 0097006 030.9588 329.7291 14.77667708384598 CZ-2D R/B 1 28738U 05024B 12036.82369542 .00002226 00000-0 17190-3 0 1287 2 28738 097.7278 066.5049 0014758 203.3321 156.7232 15.02521411360837 ASTRO E2 1 28773U 05025A 12035.98052812 +.00002030 +00000-0 +14177-3 0 07081 2 28773 031.4065 284.8628 0007207 305.9658 054.0313 15.03039264361029 ALOS 1 28931U 06002A 12037.36661586 .00000468 00000-0 10751-3 0 7381 2 28931 098.0915 109.7923 0001413 051.7320 308.4008 14.59763648321546 H-2A R/B 1 28932U 06002B 12036.87676962 .00001891 00000-0 21245-3 0 9575 2 28932 098.3245 205.5335 0102667 204.8593 154.7656 14.84341832326534 ASTRO F (AKARI) 1 28939U 06005A 12036.89785572 .00005572 00000-0 32274-3 0 8039 2 28939 098.2524 053.1124 0183756 352.7373 007.1193 14.99486791316828 M-5 R/B (Decayed 2011-02-02) 1 28942U 06005D 11033.50120833 .19493616 33309-5 18752-3 0 6294 2 28942 098.0717 295.5466 0006060 191.0676 169.1534 16.51322780279437 RESURS DK-1 1 29228U 06021A 12037.49453869 .00000409 00000-0 41163-4 0 3359 2 29228 069.9355 028.6828 0002380 132.3569 012.9866 14.99269449314364 COSMOS 2421 (Decayed 2010-08-19) 1 29247U 06026A 10231.12494299 .25067694 73756-5 16960-3 0 2759 2 29247 065.0197 227.6945 0021107 190.0403 171.8084 16.52102704236421 GENESIS 1 1 29252U 06029A 12036.78240791 .00002176 00000-0 15849-3 0 5359 2 29252 064.5087 150.3634 0055442 259.2562 100.2310 15.05483863305823 H-2A R/B 1 29394U 06037B 12037.57088961 .00686266 24747-3 82764-3 0 8338 2 29394 097.4082 201.2301 0005040 023.7346 336.4100 16.08280627304624 M-5 R/B (Decayed 2009-10-20) 1 29480U 06041B 09292.83767789 +.12043556 +30710-5 +10894-3 0 00786 2 29480 098.2372 143.7071 0010206 333.6641 026.5161 16.51401864175082 CZ-4 R/B 1 29507U 06046C 12036.91653221 .00000847 00000-0 84175-4 0 7424 2 29507 097.6934 032.7266 0043252 343.5175 016.4637 14.93680099288029 SL-8 R/B 1 29659U 06060B 12037.20434575 .00009640 00000-0 25702-3 0 5260 2 29659 098.1435 242.2933 0031366 111.5932 248.8655 15.37901526286552 ATLAS 5 CENTAUR R/B 1 30778U 07006G 12035.85461831 +.00006385 +00000-0 +27183-3 0 03276 2 30778 035.7012 192.5218 0027637 028.7230 331.5013 15.22108957272401 CZ-2C R/B 1 31114U 07010B 12036.89413467 -.00000122 00000-0 -39285-4 0 3196 2 31114 098.2546 021.9669 0060454 143.1910 217.3430 14.18742684249793 GENESIS 2 1 31789U 07028A 12036.88897588 .00001627 00000-0 12451-3 0 2825 2 31789 064.5054 182.6706 0043841 310.1766 049.5518 15.05063162253021 COSMOS 2428 1 31792U 07029A 12037.45368760 .00000138 00000-0 10000-3 0 1169 2 31792 071.0102 194.0722 0008109 340.4003 084.1309 14.12528965237642 SL-16 R/B 1 31793U 07029B 12037.02761344 -.00000240 00000-0 -10083-3 0 3369 2 31793 070.9729 181.4914 0002180 252.8760 107.2124 14.14101620237861 KORONAS-FOTON 1 33504U 09003A 12037.50257691 .00001131 00000-0 73642-4 0 3384 2 33504 082.4770 004.7068 0016762 037.7152 073.1394 15.06894108165817 TIANGONG 1 1 37820U 11053A 12037.49089503 .00031183 00000-0 24615-3 0 4443 2 37820 042.7844 130.2344 0009524 015.4663 095.6676 15.70721478 20455 CZ-2F R/B (Decayed 2011-10-10) 1 37821U 11053B 11276.76318302 .00957964 85784-5 51966-3 0 143 2 37821 042.7816 170.6871 0080960 160.5505 199.8487 16.11177911 681